Home   Weather   Sioux Falls   Past weeks

Flag for USA Past Weather in Sioux Falls, South Dakota, USA — Yesterday and Last 2 Weeks

Now
30 °F

Light snow. Ice fog.


Feels Like: 17 °F
Forecast: 21 / 30 °F
Wind: 21 mph from Northeast

Location: Foss Field

Current Time: Feb 23, 2017 at 7:20:04 pm

Latest Report: Feb 23, 2017 at 6:56 pm


Visibility: 5 mi

Pressure: 29.87 "Hg

Humidity: 89%

Dew Point: 27 °F

Location of Sioux FallsLocation

Past Weather in Sioux Falls — Graph

°F

Sioux Falls Temperature Yesterday

Maximum temperature yesterday: 62 °F (at 1:56 pm)
Minimum temperature yesterday: 35 °F (at 4:56 am)
Average temperature yesterday: 46 °F

High & Low Weather Summary for the Past Weeks

 TemperatureHumidityPressure
High68 °F (Feb 21, 3:56 pm)100% (Feb 11, 6:56 pm)30.46 "Hg (Feb 11, 6:56 pm)
Low6 °F (Feb 9, 1:56 am)36% (Feb 21, 3:56 pm)29.49 "Hg (Feb 17, 5:56 am)
Average38 °F79%29.90 "Hg
* Reported Feb 8 5:56 pm — Feb 23 5:56 pm, Sioux Falls, Weather by CustomWeather, © 2017

Note: Actual official high and low records may vary slightly from our data, if they occured in-between our weather recording intervals... More about our weather records

Advertising

Sioux Falls Weather History for the Previous 24 Hours

Scroll right to see more
 ConditionsComfort  
Time TempWeatherWind HumidityBarometerVisibility
5:56 pm
Thu, Feb 23
30 °FLight snow. Ice fog.22 mph89%29.83 "Hg3 mi
4:56 pm30 °FLight snow. Ice fog.20 mph89%29.84 "Hg1 mi
4:29 pm30 °FLight snow. Ice fog.24 mph92%29.80 "Hg1 mi
4:08 pm30 °FLight snow. Ice fog.20 mph92%29.82 "Hg1 mi
3:56 pm30 °FSnow. Ice fog.20 mph96%29.87 "Hg0 mi
3:34 pm30 °FHeavy snow. Ice fog.17 mph96%29.82 "Hg0 mi
3:19 pm30 °FSnow. Ice fog.17 mph92%29.83 "Hg1 mi
2:56 pm30 °FLight snow. Ice fog.17 mph96%29.89 "Hg1 mi
2:25 pm30 °FSnow. Ice fog.17 mph96%29.83 "Hg1 mi
2:09 pm31 °FHeavy snow. Ice fog.17 mph92%29.84 "Hg0 mi
1:56 pm31 °FLight snow. Ice fog.20 mph89%29.88 "Hg1 mi
1:20 pm31 °FLight snow. Ice fog.18 mph85%29.84 "Hg1 mi
12:56 pm32 °FLight snow. Cloudy.18 mph82%29.89 "Hg7 mi
11:56 am32 °FLight snow. Mostly cloudy.16 mph79%29.91 "Hg4 mi
10:56 am32 °FMostly cloudy.18 mph79%29.92 "Hg10 mi
10:19 am32 °FMostly cloudy.16 mph79%29.88 "Hg10 mi
9:56 am33 °FMore clouds than sun.21 mph75%29.90 "Hg10 mi
8:56 am32 °FMore clouds than sun.12 mph82%29.93 "Hg10 mi
7:56 am32 °FCloudy.14 mph82%29.93 "Hg10 mi
6:56 am32 °FOvercast.15 mph82%29.92 "Hg10 mi
6:26 am32 °FMostly cloudy.14 mph85%29.87 "Hg10 mi
5:56 am32 °FMostly cloudy.15 mph85%29.90 "Hg10 mi
4:56 am31 °FOvercast.20 mph89%29.88 "Hg10 mi
3:56 am32 °FOvercast.12 mph88%29.91 "Hg10 mi
2:56 am32 °FOvercast.15 mph88%29.89 "Hg10 mi
1:56 am32 °FOvercast.20 mph88%29.89 "Hg10 mi
1:17 am33 °FOvercast.20 mph88%29.87 "Hg10 mi
12:56 am34 °FLow clouds.14 mph88%29.89 "Hg10 mi
11:56 pm
Wed, Feb 22
35 °FLow clouds.12 mph88%29.92 "Hg10 mi
10:58 pm35 °FLow clouds.10 mph92%29.88 "Hg10 mi
9:56 pm38 °FPassing clouds.8 mph90%29.88 "Hg10 mi
8:56 pm38 °FPassing clouds.9 mph93%29.85 "Hg10 mi
7:56 pm41 °FPassing clouds.13 mph86%29.82 "Hg10 mi
Weather by CustomWeather, © 2017

See weather overviewHow to use our weather pages